Regional Weather Roundup
Issued by NWS Charleston, SC

Current Version | Previous Version | Graphics & Text | Print | Product List | Glossary On
Versions: 1 2 3 4 5 6 7 8 9 10 11 12 13 14 15 16 17 18 19 20 21 22 23 24 25 26 27 28 29 30 31 32 33 34 35 36 37 38 39 40 41 42 43 44 45 46 47 48 49 50
000
ASUS42 KCHS 231412
RWRCHS

REGIONAL WEATHER ROUNDUP
NATIONAL WEATHER SERVICE CHARLESTON SC
1000 AM EDT SUN APR 23 2017

NOTE: "FAIR" INDICATES FEW OR NO CLOUDS BELOW 12,000 FEET WITH NO
SIGNIFICANT WEATHER AND/OR OBSTRUCTIONS TO VISIBILITY.

NOT ALL STATIONS ARE QUALITY CONTROLLED. USE DATA WITH CAUTION...
ESPECIALLY DEWPOINT OBSERVATIONS.

SCZ027-030-031-034>040-042>050-231500-
...SOUTHEAST SOUTH CAROLINA...

CITY           SKY/WX    TMP DP  RH WIND       PRES   REMARKS
N CHARLESTON   MOSUNNY   77  68  73 S7        29.87S
WATERFRONT PRK   N/A     74  70  87 SW6       29.86S
JOHNS ISLAND   CLOUDY    77  70  78 S10       29.88S
PINOPOLIS        N/A     73  70  88 VRB3      29.81R
MONCKS CORNER  CLOUDY    75  68  78 CALM      29.88S
SUMMERVILLE    FAIR      77  68  73 S5        29.88S
BEAUFORT MCAS  SUNNY     78  70  76 SW3       29.87S
BEAUFORT ARPT  FAIR      77  70  78 S7        29.87S HAZE
HILTON HEAD IS MOSUNNY   79  70  73 S12       29.87R
WALTERBORO     PTSUNNY   75  66  73 W6        29.88S
ALLENDALE      FAIR      75  63  64 CALM      29.85F

...SOUTHERN MIDLANDS AND PEE DEE...

CITY           SKY/WX    TMP DP  RH WIND       PRES   REMARKS
GEORGETOWN     CLOUDY    73  70  88 W3        29.90F
KINGSTREE      CLOUDY    68  61  77 N5        29.91R
ORANGEBURG     SUNNY     74  65  73 CALM      29.87F
BARNWELL       FAIR      75  66  73 CALM      29.87S
AIKEN          FAIR      70  61  73 NE9       29.90S
MANNING        PTSUNNY   70  64  83 NW14G22   29.90R
COLUMBIA       CLOUDY    66  58  75 NE8       29.89R
SUMTER         CLOUDY    67  60  78 CALM      29.88S
FLORENCE       CLOUDY    62  59  90 E12       29.93S
MYRTLE BEACH   CLOUDY    68  64  88 NE12      29.93S
N MYRTLE BEACH CLOUDY    65  63  93 NE9       29.92S

$$

GAZ063-065-086>088-099>101-113>116-118-119-134>141-150-231500-
...SOUTHEAST GEORGIA...

CITY           SKY/WX    TMP DP  RH WIND       PRES   REMARKS
SAVANNAH ARPT  MOSUNNY   77  64  64 VRB3      29.87S
HUNTER AAF     SUNNY     78  70  74 S3        29.84F
FORT STEWART   SUNNY     75  64  68 SW6       29.85S
STATESBORO     MOSUNNY   79  63  57 S3        29.86S
SYLVANIA       SUNNY     79  64  61 CALM      29.86F
CLAXTON        PTSUNNY   74  69  84 SW3       29.87S

...CSRA...CENTRAL AND FAR SOUTHEAST GEORGIA...

CITY           SKY/WX    TMP DP  RH WIND       PRES   REMARKS
THOMSON        MOSUNNY   70  62  75 S6        29.90S
AUGUSTA-BUSH   SUNNY     74  65  73 SE8       29.85S
AUGUSTA-DANIEL SUNNY     73  60  63 E8        29.86S
SWAINSBORO     CLOUDY    73  63  68 SW6       29.87R
VIDALIA        PTSUNNY   73  64  73 CALM      29.86S
EASTMAN        FAIR      73  56  55 SW3       29.88S
HAZLEHURST     FAIR      75  67  75 SW7       29.86S
ALMA           SUNNY     75  63  66 SW7       29.87S
WAYCROSS       SUNNY     78  68  72 W3        29.88R
JESUP          CLOUDY    72  63  73 SW3       29.88S
BAXLEY         FAIR      75  66  73 SW7       29.86F
BRUNSWICK      SUNNY     79  64  61 SW6       29.88S
SAINT SIMONS   SUNNY     76  63  64 SW9       29.87S

$$

SCZ027-028-034-036>038-045-046-048>050-GAZ119-141-231500-
...LAKE AND SUPPLEMENTAL COASTAL OBSERVATIONS...

STATION/POSITION TIME  TEMP    WIND        PRES    WAVE   SWELL
                       AIR SEA DIR/SP/G            HT/PER HT/PER/DIR
                 (UTC) (F)     (DEG/KT/KT) (MB)    (FT/S) (FT/S/D)
WINYAH BAY       NOT AVBL
LAKE MURRAY      1320   61      60/  5/ 11 1011.9
ACE BASIN NERRS  NOT AVBL
FORT PULASKI     1348      74  210/  6/  9 1011.6S
SAPELO ISLAND    1300   74     220/  5     1012.0

$$

ANZ835-935-AMZ111-154-330-350-352-354-370-450-454-472-231500-
...C-MAN AND BUOY OBSERVATIONS...

STATION/POSITION TIME  TEMP    WIND        PRES    WAVE   SWELL
                       AIR SEA DIR/SP/G            HT/PER HT/PER/DIR
                 (UTC) (F)     (DEG/KT/KT) (MB)    (FT/S) (FT/S/D)
BUOY 41004       1350   74 74  200/  8/ 10 1012.4R   3/ 5   3/170/ 5
BUOY 41008       1350   72 71  220/  6/  8 1011.2R   3/ 6   3/140/ 6
FOLLY BEACH CMAN 1400   74     200/  8/  9 1012.6R
CAPERS NEARSHORE 1308   72 71  210/  8/ 10 1012.0R
FRIPP NEARSHORE  1308   72 72  230/ 10/ 12 1011.4S


STATION/POSITION TIME  TEMP    WIND        PRES    WAVE   SWELL
                       AIR SEA DIR/SP/G            HT/PER HT/PER/DIR
                 (UTC) (F)     (DEG/KT/KT) (MB)    (FT/S) (FT/S/D)
5E ST. MARYS GA  1330      72                N/A     2/11   2/100/11
FRYING PAN BUOY  1350   74 73  260/  2/  4 1013.0S   4/12   3/100/12
BUOY 41025       1350   63 74   20/ 17/ 21 1014.9F   5/ 6   2/100/12
CAPE LOOKOUT NC  1300   62      40/ 20/ 24 1014.9F
BUOY 41002       1350   72 75  180/ 10/ 12 1015.4F   4/12   3/ 30/12
BUOY 41010       1350   76 78  160/ 14/ 16 1013.0R   5/13   3/ 70/13
ST AUGUSTINE FL  1400   73 75  130/  6/  7 1012.9F


$$



USA.gov is the U.S. government's official web portal to all federal, state and local government web resources and services.